Weather in Butuntay

Russia / Zabaykalsky Krai     50°39′23″N   118°07′08″E
temp.,
°C
wind,
m/s
gust,
m/s
humid.,
%
clouds,
%
prec.,
mm/h
press.,
hPa
HPBL,
m
18 may, tue
tue1800:00+7w367928 0.0 1000107
03:00+5wnw22705 0.0 100221
06:00+4nnw237997 0.0 100353
09:00+10nnw12516 0.0 1002832
12:00+12wnw362994 0.0 10022249
15:00+14wnw692897 0.0 10002838
18:00+13w7102811 0.0 10012634
21:00+9nw38275 0.0 1002174
19 may, wed
wed1900:00+5w213188 0.0 100410
03:00+5nw223392 0.0 100411
06:00+5n113289 0.0 100410
09:00+10sse2425100 0.0 1002427
12:00+11sw4744100 0.1 9991590
15:00+8nnw4586100 6.2 997340
18:00+7nnw488061 5.3 998671
21:00+5nnw36811 5.4 1002283
20 may, thu
thu2000:00+3nw118999 0.0 100310
03:00+3sw118927 0.0 100411
06:00+3w1185100 0.0 100611
09:00+8ssw2365100 0.0 1005437
12:00+13ssw4643100 0.0 10021538
15:00+16ssw5836100 0.0 10012180
18:00+17s583648 0.0 9991184
21:00+13w2356100 0.0 100152
21 may, fri
fri2100:00+11ne2281100 0.5 100134
03:00+9ene2284100 0.5 100240
06:00+8ene2585100 0.1 1000234
09:00+10e486867 0.1 1000447
12:00+15e685599 0.0 998798
15:00+22ene454327 0.1 995882
18:00+14ese51175100 2.3 994365
21:00+11e51085100 3.3 995298
22 may, sat
sat2200:00+9e228990 0.0 99659
03:00+9ene2294100 0.0 99441
06:00+10nnw2294100 0.0 99383
09:00+11nw3587100 0.0 995366
12:00+12nnw3578100 0.5 995722
15:00+10nnw687399 0.6 997608
18:00+11nw796487 0.0 998988
21:00+8nnw487389 0.0 998571